Miscellaneous Local Product
Issued by NWS Hastings, NE

Home | Current Version | Previous Version | Graphics & Text | Print | Product List | Glossary On
Versions: 1 2 3 4 5 6 7 8 9 10 11 12 13 14 15 16 17 18 19 20 21 22 23 24 25 26 27 28 29 30 31 32 33 34 35 36 37 38 39 40 41 42 43 44 45 46 47 48 49 50
000
AXUS43 KGID 252302
MISGRI

GID CWA HOURLY WEATHER ROUNDUP
NATIONAL WEATHER SERVICE HASTINGS NE
600 PM CDT THU AUG 25 2016

NOTE: "FAIR" INDICATES FEW OR NO CLOUDS BELOW 12,000 FEET WITH NO
SIGNIFICANT WEATHER AND/OR OBSTRUCTIONS TO VISIBILITY.

...SOUTH CENTRAL NEBRASKA...

CITY           SKY/WX    TMP DP  RH WIND       PRES   REMARKS
GRAND ISLAND   MOSUNNY   77  55  46 E9        30.14F
HASTINGS       MOSUNNY   76  55  48 NE9       30.14F
KEARNEY        SUNNY     75  54  46 NE9       30.13F
ORD            SUNNY     78  49  35 VRB5      30.14F
YORK           MOSUNNY   75  59  57 NE9       30.13F
AURORA         SUNNY     75  56  51 NE10      30.13F
LEXINGTON      SUNNY     78  48  34 E7        30.14F
HOLDREGE       SUNNY     74  54  48 NE8       30.14F
HEBRON         CLOUDY    74  60  60 NE9       30.12S

...NEBRASKA PANHANDLE...

CITY           SKY/WX    TMP DP  RH WIND       PRES   REMARKS
CHADRON        CLOUDY    67  47  48 NE3       30.22S
ALLIANCE       MOSUNNY   69  44  40 NE5       30.21F
SCOTTSBLUFF    SUNNY     71  46  40 E10       30.20F
SIDNEY         MOSUNNY   73  42  32 SE10      30.22S

...WESTERN AND NORTH CENTRAL NEBRASKA...

CITY           SKY/WX    TMP DP  RH WIND       PRES   REMARKS
VALENTINE      SUNNY     72  45  37 NW9       30.20S
AINSWORTH      SUNNY     72  50  45 N5        30.19S
ONEILL         SUNNY     76  46  35 NW7       30.17S
BROKEN BOW     SUNNY     76  51  41 NE6       30.16F
IMPERIAL       SUNNY     78  43  28 E8        30.15F
NORTH PLATTE   SUNNY     79  50  36 SE8       30.15F
MCCOOK         SUNNY     78  51  38 E12       30.13F

...EASTERN NEBRASKA...

CITY           SKY/WX    TMP DP  RH WIND       PRES   REMARKS
NORFOLK        SUNNY     75  54  47 NW3       30.14F
SO SIOUX CITY  SUNNY     75  58  55 N9        30.12F
TEKAMAH        SUNNY     77  61  57 N6        30.12F
COLUMBUS       SUNNY     75  55  50 N7        30.14F
ALBION         SUNNY     73  55  52 NE5       30.15F
OMAHA EPPLEY   PTSUNNY   78  61  55 N6        30.11F
OFFUTT AFB     PTSUNNY   75  62  63 N7        30.10F
MILLARD        CLOUDY    77  60  55 N5        30.11S
LINCOLN        MOSUNNY   75  59  57 NE8       30.12F
NEBRASKA CITY  MOSUNNY   73  60  62 NE6       30.11F
BEATRICE       MOSUNNY   75  60  59 NE10      30.10F
FALLS CITY     CLOUDY    77  61  57 N9        30.08S

...NORTHERN KANSAS...

CITY           SKY/WX    TMP DP  RH WIND       PRES   REMARKS
GOODLAND       SUNNY     75  46  35 E13       30.15F
HILL CITY      PTSUNNY   75  54  47 NE9       30.13F
NORTON         CLEAR     77  43  29 NE6       30.12F
SMITH CENTER   SUNNY     73  54  49 NE10      30.12F
BELOIT         SUNNY     72  59  64 N8        30.10S
HAYS           SUNNY     77  55  47 NE7       30.11S
RUSSELL        SUNNY     77  59  53 E10       30.09F
CONCORDIA      SUNNY     77  57  50 NE9       30.10F
SALINA         MOSUNNY   78  64  61 NE8       30.08S
TOPEKA         MOSUNNY   80  69  69 N8        30.04F



USA.gov is the U.S. government's official web portal to all federal, state and local government web resources and services.